Observations for Trim Patrick St
| Time | AQI | Temp °C | Hum % | Pres Pa | CO μg/m³ | H₂S μg/m³ | NO μg/m³ | NO₂ μg/m³ | O₃ μg/m³ | SO₂ μg/m³ | PM1 μg/m³ | PM2.5 μg/m³ | PM10 μg/m³ |
|---|---|---|---|---|---|---|---|---|---|---|---|---|---|
| Thursday 6 August 2026 | |||||||||||||
| 06:00 | 2 | 12.4 | 79 | 38,460 | 0.36 | 0.01 | 3.49 | 13.92 | 25.27 | 0 | 2 | 5.27 | 5.8 |
| 05:59 | 2 | 12.5 | 78 | 38,460 | 0.36 | 0.43 | 3.55 | 15.64 | 40.1 | 0 | 2.86 | 6.02 | 6.62 |
| 05:58 | 2 | 12.4 | 79 | 38,460 | 0.37 | 0.92 | 3.45 | 18.16 | 42.63 | 0 | 2.86 | 5.97 | 6.57 |
| 05:57 | 2 | 12.4 | 79 | 38,460 | 0.37 | 0 | 3.52 | 12.15 | 30.37 | 0 | 2.86 | 6.66 | 7.33 |
| 05:56 | 2 | 12.4 | 79 | 38,460 | 0.37 | 0 | 3.45 | 13.33 | 31.77 | 0 | 2 | 5.27 | 5.8 |
| 05:55 | 2 | 12.4 | 79 | 38,460 | 0.36 | 0.58 | 3.47 | 15.39 | 37.46 | 0 | 2.86 | 5.97 | 6.56 |
| 05:54 | 2 | 12.4 | 79 | 38,460 | 0.37 | 0 | 3.53 | 12.09 | 25.91 | 0 | 2 | 6 | 6.6 |
| 05:53 | 2 | 12.4 | 78 | 38,460 | 0.37 | 0.48 | 3.47 | 16.87 | 38.26 | 0 | 2.86 | 6.04 | 6.65 |
| 05:52 | 2 | 12.4 | 80 | 38,460 | 0.37 | 0.48 | 3.47 | 12.96 | 31.33 | 0 | 2.86 | 5.25 | 5.78 |
| 05:51 | 2 | 12.3 | 78 | 38,460 | 0.38 | 1.46 | 3.57 | 16.26 | 37.76 | 0 | 2 | 6.74 | 7.41 |
| 05:50 | 2 | 12.4 | 79 | 38,460 | 0.37 | 1.18 | 3.6 | 18.47 | 45.36 | 0 | 3.71 | 6.68 | 7.34 |
| 05:49 | 2 | 12.3 | 79 | 38,460 | 0.37 | 1.15 | 3.61 | 14.65 | 36.13 | 0 | 2.86 | 5.26 | 5.79 |
| 05:48 | 2 | 12.3 | 79 | 38,460 | 0.37 | 1.17 | 3.69 | 15.19 | 38.13 | 0 | 2 | 5.3 | 5.83 |
| 05:47 | 2 | 12.3 | 79 | 38,460 | 0.37 | 1.07 | 3.66 | 15.67 | 35.21 | 0 | 2 | 5.29 | 5.81 |
| 05:46 | 2 | 12.3 | 79 | 38,460 | 0.37 | 1.46 | 3.71 | 14.2 | 35.38 | 0 | 2.86 | 5.97 | 6.57 |
| 05:45 | 2 | 12.2 | 79 | 38,460 | 0.37 | 1.3 | 3.77 | 19.82 | 46.81 | 0 | 2 | 5.27 | 5.79 |
| 05:44 | 2 | 12.2 | 79 | 38,460 | 0.37 | 1.2 | 3.87 | 13.32 | 29.65 | 0 | 2.86 | 5.97 | 6.56 |
| 05:43 | 2 | 12.2 | 79 | 38,460 | 0.36 | 1.43 | 3.86 | 15.74 | 41.56 | 0 | 2.86 | 5.29 | 5.82 |
| 05:42 | 2 | 12.2 | 79 | 38,460 | 0.37 | 2.15 | 3.87 | 18.32 | 46.8 | 0 | 2.86 | 6.67 | 7.34 |
| 05:41 | 2 | 12.2 | 79 | 38,460 | 0.36 | 1.84 | 3.84 | 14.85 | 36.86 | 0 | 2.86 | 6.01 | 6.61 |